Location: Azul
(36.7830°S, 59.8500°W)
Time: 00:32:05
(UTC-03:00)

DELFI C3 - Pass Details

Date: 27 October 2021
Orbit: 529 x 543 km, 97.4° (Epoch: 30 November)

Event Time Altitude Azimuth Distance (km) Brightness Sun altitude
Rises 20:59:25 0° 171° (S) 2,735 ? -17.5°
Reaches altitude 10° 21:01:34 10° 172° (S) 1,831 ? -17.9°
Maximum altitude 21:05:32 77° 257° (WSW) 564 ? -18.5°
Enters shadow 21:09:23 10° 342° (NNW) 1,788 ? -19.2°
